,,Stat6,,Stat2,,Stat8,,Stat9,,Stat10,,Wind1,,Wind1,
time,status,PA1M_AVG,status,PR1M_SUM,status,RH1M_AVG,status,SR1M_AVG,status,TA1M_AVG,status,W1dAve1m,status,W1sAve1m,
2008-01-13, 00:00:00,VALID,918.354,VALID,0,VALID,99.6951,VALID,-0.0509425,VALID,20.8351,VALID,41,VALID,0.314787,
2008-01-13, 00:01:00,VALID,918.357,VALID,0,VALID,99.8286,VALID,-0.0509425,VALID,20.8221,VALID,43,VALID,0.00672238,
2008-01-13, 00:02:00,VALID,918.351,VALID,0,VALID,100,VALID,-0.0339617,VALID,20.8448,VALID,43,VALID,0,
2008-01-13, 00:03:00,VALID,918.342,VALID,0,VALID,99.8629,VALID,-0.0339617,VALID,20.8481,VALID,297,VALID,0,
2008-01-13, 00:04:00,VALID,918.341,VALID,0,VALID,99.8464,VALID,0,VALID,20.8383,VALID,244,VALID,0,
2008-01-13, 00:05:00,VALID,918.34,VALID,0,VALID,99.8884,VALID,-0.0169808,VALID,20.8221,VALID,220,VALID,0,
2008-01-13, 00:06:00,VALID,918.33,VALID,0,VALID,99.9827,VALID,-0.0509425,VALID,20.8124,VALID,220,VALID,0,
2008-01-13, 00:07:00,VALID,918.326,VALID,0,VALID,100,VALID,0,VALID,20.8281,VALID,220,VALID,0,
2008-01-13, 00:08:00,VALID,918.332,VALID,0,VALID,100,VALID,0,VALID,20.8383,VALID,220,VALID,0,
2008-01-13, 00:09:00,VALID,918.304,VALID,0,VALID,100,VALID,-0.0679233,VALID,20.8578,VALID,220,VALID,0,
2008-01-13, 00:10:00,VALID,918.316,VALID,0,VALID,100,VALID,-0.0169808,VALID,20.877,VALID,191,VALID,0,
2008-01-13, 00:11:00,VALID,918.305,VALID,0,VALID,100,VALID,-0.0339617,VALID,20.88,VALID,190,VALID,0,
2008-01-13, 00:12:00,VALID,918.311,VALID,0,VALID,100,VALID,0,VALID,20.8933,VALID,190,VALID,0,
2008-01-13, 00:13:00,VALID,918.305,VALID,0,VALID,100,VALID,-0.0339617,VALID,20.913,VALID,190,VALID,0,
2008-01-13, 00:14:00,VALID,918.3,VALID,0,VALID,100,VALID,0,VALID,20.9257,VALID,190,VALID,0,
2008-01-13, 00:15:00,VALID,918.296,VALID,0,VALID,99.8884,VALID,0,VALID,20.883,VALID,190,VALID,0,
2008-01-13, 00:16:00,VALID,918.289,VALID,0,VALID,99.9669,VALID,0,VALID,20.8605,VALID,190,VALID,0,
2008-01-13, 00:17:00,VALID,918.281,VALID,0,VALID,100,VALID,0.0169808,VALID,20.867,VALID,190,VALID,0,
2008-01-13, 00:18:00,VALID,918.286,VALID,0,VALID,100,VALID,0.0169808,VALID,20.8692,VALID,211,VALID,0.252308,
2008-01-13, 00:19:00,VALID,918.282,VALID,0,VALID,99.7879,VALID,0.0339617,VALID,20.844,VALID,271,VALID,0.795856,
2008-01-13, 00:20:00,VALID,918.287,VALID,0,VALID,99.9336,VALID,0,VALID,20.8019,VALID,247,VALID,0.570676,
2008-01-13, 00:21:00,VALID,918.274,VALID,0,VALID,99.9662,VALID,0,VALID,20.7726,VALID,240,VALID,0.9617,
2008-01-13, 00:22:00,VALID,918.278,VALID,0,VALID,99.8858,VALID,0,VALID,20.7307,VALID,234,VALID,0.874805,
2008-01-13, 00:23:00,VALID,918.272,VALID,0,VALID,99.9692,VALID,0,VALID,20.7012,VALID,219,VALID,0.701637,
2008-01-13, 00:24:00,VALID,918.263,VALID,0,VALID,100,VALID,-0.0169808,VALID,20.7118,VALID,250,VALID,0.792225,
2008-01-13, 00:25:00,VALID,918.261,VALID,0,VALID,100,VALID,0,VALID,20.6888,VALID,256,VALID,0.866992,
2008-01-13, 00:26:00,VALID,918.278,VALID,0,VALID,100,VALID,-0.0339617,VALID,20.6655,VALID,254,VALID,1.12742,
2008-01-13, 00:27:00,VALID,918.271,VALID,0,VALID,100,VALID,-0.0169808,VALID,20.6366,VALID,255,VALID,1.08147,
2008-01-13, 00:28:00,VALID,918.276,VALID,0,VALID,100,VALID,-0.0169808,VALID,20.5969,VALID,260,VALID,0.87642,
2008-01-13, 00:29:00,VALID,918.301,VALID,0,VALID,100,VALID,0,VALID,20.5774,VALID,265,VALID,0.765253,
2008-01-13, 00:30:00,VALID,918.314,VALID,0,VALID,100,VALID,-0.0509425,VALID,20.5719,VALID,265,VALID,0.907703,
2008-01-13, 00:31:00,VALID,918.314,VALID,0,VALID,100,VALID,-0.0169808,VALID,20.5784,VALID,259,VALID,0.688988,
2008-01-13, 00:32:00,VALID,918.303,VALID,0,VALID,100,VALID,0,VALID,20.5844,VALID,249,VALID,0.720348,
2008-01-13, 00:33:00,VALID,918.293,VALID,0,VALID,100,VALID,-0.0169808,VALID,20.5742,VALID,254,VALID,0.190044,
2008-01-13, 00:34:00,VALID,918.262,VALID,0,VALID,100,VALID,0.0339617,VALID,20.5877,VALID,210,VALID,0.547238,
2008-01-13, 00:35:00,VALID,918.238,VALID,0,VALID,100,VALID,-0.0339617,VALID,20.6041,VALID,223,VALID,0.453125,
2008-01-13, 00:36:00,VALID,918.196,VALID,0,VALID,100,VALID,0.0169808,VALID,20.6098,VALID,222,VALID,0.209722,
2008-01-13, 00:37:00,VALID,918.169,VALID,0,VALID,99.9791,VALID,-0.0339617,VALID,20.6301,VALID,214,VALID,0.680778,
2008-01-13, 00:38:00,VALID,918.149,VALID,0,VALID,99.9807,VALID,-0.0339617,VALID,20.6336,VALID,228,VALID,0.465554,
2008-01-13, 00:39:00,VALID,918.14,VALID,0,VALID,99.8934,VALID,0.0169808,VALID,20.6433,VALID,228,VALID,0.497869,
2008-01-13, 00:40:00,VALID,918.116,VALID,0,VALID,99.704,VALID,-0.0169808,VALID,20.6234,VALID,239,VALID,0.757457,
2008-01-13, 00:41:00,VALID,918.102,VALID,0,VALID,99.5577,VALID,0,VALID,20.6169,VALID,252,VALID,0.698103,
2008-01-13, 00:42:00,VALID,918.092,VALID,0,VALID,99.5348,VALID,-0.0509425,VALID,20.6106,VALID,248,VALID,0.498512,
2008-01-13, 00:43:00,VALID,918.065,VALID,0,VALID,99.5577,VALID,-0.0339617,VALID,20.6304,VALID,268,VALID,0.431868,
2008-01-13, 00:44:00,VALID,918.031,VALID,0,VALID,99.5628,VALID,-0.0169808,VALID,20.6366,VALID,247,VALID,0.217773,
2008-01-13, 00:45:00,VALID,917.997,VALID,0,VALID,99.4764,VALID,-0.0169808,VALID,20.6426,VALID,231,VALID,0.236374,
2008-01-13, 00:46:00,VALID,917.982,VALID,0,VALID,99.512,VALID,0,VALID,20.6591,VALID,247,VALID,0.00390625,
2008-01-13, 00:47:00,VALID,917.965,VALID,0,VALID,99.4713,VALID,0,VALID,20.685,VALID,247,VALID,0,
2008-01-13, 00:48:00,VALID,917.946,VALID,0,VALID,99.353,VALID,0.0169808,VALID,20.698,VALID,247,VALID,0,
2008-01-13, 00:49:00,VALID,917.929,VALID,0,VALID,99.2996,VALID,0,VALID,20.7012,VALID,247,VALID,0,
2008-01-13, 00:50:00,VALID,917.926,VALID,0,VALID,99.3149,VALID,0,VALID,20.7042,VALID,247,VALID,0,
2008-01-13, 00:51:00,VALID,917.901,VALID,0,VALID,99.2424,VALID,0.0169808,VALID,20.7202,VALID,247,VALID,0,
2008-01-13, 00:52:00,VALID,917.893,VALID,0,VALID,99.1139,VALID,0.0169808,VALID,20.7272,VALID,247,VALID,0,
2008-01-13, 00:53:00,VALID,917.869,VALID,0,VALID,99.0059,VALID,0,VALID,20.704,VALID,247,VALID,0,
2008-01-13, 00:54:00,VALID,917.84,VALID,0,VALID,99.105,VALID,-0.0169808,VALID,20.701,VALID,247,VALID,0,
2008-01-13, 00:55:00,VALID,917.832,VALID,0,VALID,99.175,VALID,-0.0169808,VALID,20.7077,VALID,247,VALID,0,
2008-01-13, 00:56:00,VALID,917.811,VALID,0,VALID,99.0961,VALID,0.0169808,VALID,20.6983,VALID,247,VALID,0,
2008-01-13, 00:57:00,VALID,917.782,VALID,0,VALID,99.133,VALID,0,VALID,20.6912,VALID,247,VALID,0,
2008-01-13, 00:58:00,VALID,917.758,VALID,0,VALID,99.1979,VALID,0.0169808,VALID,20.698,VALID,247,VALID,0,
2008-01-13, 00:59:00,VALID,917.739,VALID,0,VALID,99.208,VALID,0.0169808,VALID,20.7207,VALID,247,VALID,0,
2008-01-13, 01:00:00,VALID,917.733,VALID,0,VALID,99.1826,VALID,0,VALID,20.7272,VALID,247,VALID,0,
2008-01-13, 01:01:00,VALID,917.738,VALID,0,VALID,99.2055,VALID,0.0169808,VALID,20.7299,VALID,247,VALID,0,
2008-01-13, 01:02:00,VALID,917.727,VALID,0,VALID,99.1,VALID,0.0679233,VALID,20.7232,VALID,247,VALID,0,
2008-01-13, 01:03:00,VALID,917.726,VALID,0,VALID,99.0135,VALID,0.0339617,VALID,20.688,VALID,247,VALID,0,
2008-01-13, 01:04:00,VALID,917.713,VALID,0,VALID,99.0237,VALID,0.0169808,VALID,20.6491,VALID,247,VALID,0,
2008-01-13, 01:05:00,VALID,917.706,VALID,0,VALID,99.1216,VALID,0.0849042,VALID,20.6031,VALID,247,VALID,0,
2008-01-13, 01:06:00,VALID,917.689,VALID,0,VALID,99.2627,VALID,0.0509425,VALID,20.6044,VALID,247,VALID,0,
2008-01-13, 01:07:00,VALID,917.659,VALID,0,VALID,99.3454,VALID,0.0339617,VALID,20.5879,VALID,247,VALID,0,
2008-01-13, 01:08:00,VALID,917.616,VALID,0,VALID,99.4458,VALID,0.0169808,VALID,20.5547,VALID,247,VALID,0,
2008-01-13, 01:09:00,VALID,917.591,VALID,0,VALID,99.5056,VALID,0.0169808,VALID,20.5133,VALID,247,VALID,0,
2008-01-13, 01:10:00,VALID,917.564,VALID,0,VALID,99.6862,VALID,-0.0169808,VALID,20.4973,VALID,247,VALID,0,
2008-01-13, 01:11:00,VALID,917.541,VALID,0,VALID,99.7943,VALID,0,VALID,20.4543,VALID,247,VALID,0,
2008-01-13, 01:12:00,VALID,917.54,VALID,0,VALID,99.9138,VALID,0.0169808,VALID,20.4451,VALID,247,VALID,0,
2008-01-13, 01:13:00,VALID,917.544,VALID,0,VALID,100,VALID,0,VALID,20.4454,VALID,247,VALID,0,
2008-01-13, 01:14:00,VALID,917.543,VALID,0,VALID,100,VALID,0.0339617,VALID,20.4389,VALID,247,VALID,0,
2008-01-13, 01:15:00,VALID,917.55,VALID,0,VALID,100,VALID,0.0509425,VALID,20.4449,VALID,247,VALID,0,
2008-01-13, 01:16:00,VALID,917.539,VALID,0,VALID,100,VALID,0,VALID,20.4613,VALID,247,VALID,0,
2008-01-13, 01:17:00,VALID,917.536,VALID,0,VALID,100,VALID,0,VALID,20.4611,VALID,247,VALID,0,
2008-01-13, 01:18:00,VALID,917.527,VALID,0,VALID,100,VALID,0,VALID,20.4643,VALID,247,VALID,0,
2008-01-13, 01:19:00,VALID,917.512,VALID,0,VALID,100,VALID,0.0169808,VALID,20.4608,VALID,247,VALID,0,
2008-01-13, 01:20:00,VALID,917.5,VALID,0,VALID,100,VALID,0,VALID,20.4873,VALID,247,VALID,0,
2008-01-13, 01:21:00,VALID,917.475,VALID,0,VALID,100,VALID,0,VALID,20.4973,VALID,247,VALID,0,
2008-01-13, 01:22:00,VALID,917.459,VALID,0,VALID,100,VALID,0.0169808,VALID,20.4868,VALID,247,VALID,0,
2008-01-13, 01:23:00,VALID,917.44,VALID,0,VALID,100,VALID,0.0339617,VALID,20.4803,VALID,247,VALID,0.078869,
2008-01-13, 01:24:00,VALID,917.409,VALID,0,VALID,100,VALID,0,VALID,20.4608,VALID,241,VALID,0.00576637,
2008-01-13, 01:25:00,VALID,917.381,VALID,0,VALID,100,VALID,0,VALID,20.4616,VALID,218,VALID,0,
2008-01-13, 01:26:00,VALID,917.367,VALID,0,VALID,100,VALID,0,VALID,20.4486,VALID,193,VALID,0,
2008-01-13, 01:27:00,VALID,917.347,VALID,0,VALID,100,VALID,-0.0509425,VALID,20.4494,VALID,185,VALID,0,
2008-01-13, 01:28:00,VALID,917.335,VALID,0,VALID,100,VALID,-0.0849042,VALID,20.4464,VALID,185,VALID,0,
2008-01-13, 01:29:00,VALID,917.325,VALID,0,VALID,100,VALID,-0.101885,VALID,20.4394,VALID,185,VALID,0,
2008-01-13, 01:30:00,VALID,917.312,VALID,0,VALID,100,VALID,-0.0849042,VALID,20.4399,VALID,185,VALID,0,
2008-01-13, 01:31:00,VALID,917.303,VALID,0,VALID,100,VALID,-0.0849042,VALID,20.4269,VALID,185,VALID,0,
2008-01-13, 01:32:00,VALID,917.285,VALID,0,VALID,100,VALID,-0.101885,VALID,20.4264,VALID,185,VALID,0,
2008-01-13, 01:33:00,VALID,917.265,VALID,0,VALID,100,VALID,-0.101885,VALID,20.4337,VALID,185,VALID,0,
2008-01-13, 01:34:00,VALID,917.26,VALID,0,VALID,100,VALID,-0.118866,VALID,20.4434,VALID,185,VALID,0,
2008-01-13, 01:35:00,VALID,917.241,VALID,0,VALID,100,VALID,-0.101885,VALID,20.4267,VALID,185,VALID,0,
2008-01-13, 01:36:00,VALID,917.244,VALID,0,VALID,100,VALID,-0.0679233,VALID,20.4234,VALID,186,VALID,0,
2008-01-13, 01:37:00,VALID,917.227,VALID,0,VALID,100,VALID,-0.101885,VALID,20.4105,VALID,187,VALID,0,
2008-01-13, 01:38:00,VALID,917.207,VALID,0,VALID,100,VALID,-0.0849042,VALID,20.4075,VALID,187,VALID,0,
2008-01-13, 01:39:00,VALID,917.198,VALID,0,VALID,100,VALID,-0.0849042,VALID,20.3905,VALID,187,VALID,0,
2008-01-13, 01:40:00,VALID,917.181,VALID,0,VALID,100,VALID,-0.101885,VALID,20.407,VALID,187,VALID,0,
2008-01-13, 01:41:00,VALID,917.163,VALID,0,VALID,100,VALID,-0.0679233,VALID,20.4037,VALID,187,VALID,0,
2008-01-13, 01:42:00,VALID,917.142,VALID,0,VALID,100,VALID,-0.0849042,VALID,20.4202,VALID,187,VALID,0,
2008-01-13, 01:43:00,VALID,917.131,VALID,0,VALID,100,VALID,-0.0509425,VALID,20.4329,VALID,187,VALID,0,
2008-01-13, 01:44:00,VALID,917.124,VALID,0,VALID,100,VALID,-0.118866,VALID,20.4424,VALID,187,VALID,0,
2008-01-13, 01:45:00,VALID,917.117,VALID,0,VALID,100,VALID,-0.0679233,VALID,20.4589,VALID,187,VALID,0,
2008-01-13, 01:46:00,VALID,917.11,VALID,0,VALID,100,VALID,-0.0849042,VALID,20.4621,VALID,187,VALID,0,
2008-01-13, 01:47:00,VALID,917.106,VALID,0,VALID,100,VALID,-0.101885,VALID,20.4819,VALID,187,VALID,0,
2008-01-13, 01:48:00,VALID,917.09,VALID,0,VALID,100,VALID,-0.0679233,VALID,20.4754,VALID,187,VALID,0,
2008-01-13, 01:49:00,VALID,917.079,VALID,0,VALID,100,VALID,-0.0339617,VALID,20.4659,VALID,187,VALID,0,
2008-01-13, 01:50:00,VALID,917.058,VALID,0,VALID,100,VALID,-0.0849042,VALID,20.4491,VALID,187,VALID,0,
2008-01-13, 01:51:00,VALID,917.048,VALID,0,VALID,100,VALID,-0.0509425,VALID,20.4427,VALID,187,VALID,0,
2008-01-13, 01:52:00,VALID,917.03,VALID,0,VALID,100,VALID,-0.0339617,VALID,20.4362,VALID,187,VALID,0,
2008-01-13, 01:53:00,VALID,917.015,VALID,0,VALID,100,VALID,-0.0849042,VALID,20.4364,VALID,187,VALID,0,
2008-01-13, 01:54:00,VALID,917.001,VALID,0,VALID,100,VALID,-0.0679233,VALID,20.4691,VALID,187,VALID,0,
2008-01-13, 01:55:00,VALID,916.958,VALID,0,VALID,100,VALID,-0.0339617,VALID,20.4721,VALID,187,VALID,0,
2008-01-13, 01:56:00,VALID,916.943,VALID,0,VALID,100,VALID,-0.101885,VALID,20.4694,VALID,187,VALID,0,
2008-01-13, 01:57:00,VALID,916.903,VALID,0,VALID,100,VALID,-0.0509425,VALID,20.4397,VALID,187,VALID,0,
2008-01-13, 01:58:00,VALID,916.868,VALID,0,VALID,100,VALID,0,VALID,20.4164,VALID,184,VALID,0,
2008-01-13, 01:59:00,VALID,916.825,VALID,0,VALID,100,VALID,-0.0339617,VALID,20.351,VALID,75,VALID,0,
2008-01-13, 02:00:00,VALID,916.799,VALID,0,VALID,100,VALID,-0.0169808,VALID,20.2958,VALID,75,VALID,0,
2008-01-13, 02:01:00,VALID,916.803,VALID,0,VALID,100,VALID,0,VALID,20.2639,VALID,75,VALID,0,
2008-01-13, 02:02:00,VALID,916.805,VALID,0,VALID,100,VALID,0,VALID,20.2215,VALID,75,VALID,0,
2008-01-13, 02:03:00,VALID,916.832,VALID,0,VALID,100,VALID,-0.0169808,VALID,20.1658,VALID,75,VALID,0,
2008-01-13, 02:04:00,VALID,916.856,VALID,0,VALID,100,VALID,0,VALID,20.1461,VALID,75,VALID,0,
2008-01-13, 02:05:00,VALID,916.891,VALID,0,VALID,100,VALID,0,VALID,20.1431,VALID,75,VALID,0,
2008-01-13, 02:06:00,VALID,916.892,VALID,0,VALID,100,VALID,0,VALID,20.1496,VALID,75,VALID,0,
2008-01-13, 02:07:00,VALID,916.896,VALID,0,VALID,100,VALID,0,VALID,20.1174,VALID,75,VALID,0,
2008-01-13, 02:08:00,VALID,916.861,VALID,0,VALID,100,VALID,-0.0169808,VALID,20.0941,VALID,75,VALID,0,
2008-01-13, 02:09:00,VALID,916.846,VALID,0,VALID,100,VALID,0,VALID,20.0976,VALID,75,VALID,0,
2008-01-13, 02:10:00,VALID,916.823,VALID,0,VALID,100,VALID,0.0339617,VALID,20.0974,VALID,75,VALID,0,
2008-01-13, 02:11:00,VALID,916.795,VALID,0,VALID,100,VALID,-0.0339617,VALID,20.0874,VALID,75,VALID,0,
2008-01-13, 02:12:00,VALID,916.781,VALID,0,VALID,100,VALID,-0.0339617,VALID,20.0787,VALID,75,VALID,0,
2008-01-13, 02:13:00,VALID,916.767,VALID,0,VALID,100,VALID,-0.101885,VALID,20.0532,VALID,75,VALID,0,
2008-01-13, 02:14:00,VALID,916.741,VALID,0,VALID,100,VALID,-0.0849042,VALID,20.0467,VALID,75,VALID,0,
2008-01-13, 02:15:00,VALID,916.715,VALID,0,VALID,100,VALID,-0.118866,VALID,20.0565,VALID,75,VALID,0,
2008-01-13, 02:16:00,VALID,916.688,VALID,0,VALID,100,VALID,-0.0849042,VALID,20.0732,VALID,75,VALID,0,
2008-01-13, 02:17:00,VALID,916.671,VALID,0,VALID,100,VALID,-0.101885,VALID,20.0725,VALID,75,VALID,0,
2008-01-13, 02:18:00,VALID,916.623,VALID,0,VALID,100,VALID,-0.118866,VALID,20.0762,VALID,75,VALID,0,
2008-01-13, 02:19:00,VALID,916.605,VALID,0,VALID,100,VALID,-0.101885,VALID,20.0595,VALID,75,VALID,0,
2008-01-13, 02:20:00,VALID,916.58,VALID,0,VALID,100,VALID,-0.0679233,VALID,20.0532,VALID,43,VALID,0.51242,
2008-01-13, 02:21:00,VALID,916.576,VALID,0,VALID,100,VALID,-0.101885,VALID,20.0502,VALID,33,VALID,0.733854,
2008-01-13, 02:22:00,VALID,916.574,VALID,0,VALID,100,VALID,-0.0509425,VALID,20.0537,VALID,35,VALID,0.639535,
2008-01-13, 02:23:00,VALID,916.588,VALID,0,VALID,100,VALID,-0.118866,VALID,20.0662,VALID,36,VALID,0.498728,
2008-01-13, 02:24:00,VALID,916.585,VALID,0,VALID,100,VALID,-0.118866,VALID,20.0727,VALID,36,VALID,0.364099,
2008-01-13, 02:25:00,VALID,916.604,VALID,0,VALID,100,VALID,-0.0849042,VALID,20.0864,VALID,36,VALID,0.462798,
2008-01-13, 02:26:00,VALID,916.607,VALID,0,VALID,100,VALID,-0.0679233,VALID,20.0765,VALID,36,VALID,0.517805,
2008-01-13, 02:27:00,VALID,916.614,VALID,0,VALID,100,VALID,-0.0509425,VALID,20.0725,VALID,36,VALID,0.537388,
2008-01-13, 02:28:00,VALID,916.621,VALID,0,VALID,100,VALID,-0.0169808,VALID,20.0777,VALID,35,VALID,0.612847,
2008-01-13, 02:29:00,VALID,916.622,VALID,0,VALID,100,VALID,0,VALID,20.0844,VALID,36,VALID,0.235647,
2008-01-13, 02:30:00,VALID,916.63,VALID,0,VALID,100,VALID,0,VALID,20.0847,VALID,36,VALID,0.00502232,
2008-01-13, 02:31:00,VALID,916.645,VALID,0,VALID,100,VALID,0.0169808,VALID,20.0941,VALID,36,VALID,0.00976563,
2008-01-13, 02:32:00,VALID,916.65,VALID,0,VALID,100,VALID,0,VALID,20.1164,VALID,36,VALID,0.000976563,
2008-01-13, 02:33:00,VALID,916.657,VALID,0,VALID,100,VALID,-0.0169808,VALID,20.1458,VALID,36,VALID,0.0154514,
2008-01-13, 02:34:00,VALID,916.667,VALID,0,VALID,100,VALID,-0.0169808,VALID,20.166,VALID,36,VALID,0.037064,
2008-01-13, 02:35:00,VALID,916.678,VALID,0,VALID,100,VALID,0,VALID,20.1755,VALID,36,VALID,0,
2008-01-13, 02:36:00,VALID,916.685,VALID,0,VALID,100,VALID,-0.0169808,VALID,20.1915,VALID,36,VALID,0,
2008-01-13, 02:37:00,VALID,916.717,VALID,0,VALID,100,VALID,0,VALID,20.182,VALID,36,VALID,0,
2008-01-13, 02:38:00,VALID,916.727,VALID,0,VALID,100,VALID,0,VALID,20.1947,VALID,36,VALID,0,
2008-01-13, 02:39:00,VALID,916.751,VALID,0,VALID,100,VALID,0,VALID,20.198,VALID,36,VALID,0,
2008-01-13, 02:40:00,VALID,916.768,VALID,0,VALID,100,VALID,0.0169808,VALID,20.2107,VALID,36,VALID,0,
2008-01-13, 02:41:00,VALID,916.773,VALID,0,VALID,100,VALID,0,VALID,20.2234,VALID,36,VALID,0,
2008-01-13, 02:42:00,VALID,916.777,VALID,0,VALID,100,VALID,-0.0169808,VALID,20.2337,VALID,37,VALID,0.0830793,
2008-01-13, 02:43:00,VALID,916.777,VALID,0,VALID,100,VALID,0.0169808,VALID,20.2234,VALID,95,VALID,0.163681,
2008-01-13, 02:44:00,VALID,916.756,VALID,0,VALID,100,VALID,0,VALID,20.2407,VALID,95,VALID,0.0186738,
2008-01-13, 02:45:00,VALID,916.737,VALID,0,VALID,100,VALID,0,VALID,20.2432,VALID,95,VALID,0,
2008-01-13, 02:46:00,VALID,916.724,VALID,0,VALID,100,VALID,-0.0169808,VALID,20.2496,VALID,95,VALID,0,
2008-01-13, 02:47:00,VALID,916.705,VALID,0,VALID,100,VALID,0.0169808,VALID,20.2661,VALID,95,VALID,0,
2008-01-13, 02:48:00,VALID,916.69,VALID,0,VALID,100,VALID,0.0169808,VALID,20.2334,VALID,95,VALID,0,
2008-01-13, 02:49:00,VALID,916.686,VALID,0,VALID,100,VALID,0,VALID,20.214,VALID,91,VALID,0,
2008-01-13, 02:50:00,VALID,916.697,VALID,0,VALID,100,VALID,-0.0339617,VALID,20.2339,VALID,38,VALID,0,
2008-01-13, 02:51:00,VALID,916.706,VALID,0,VALID,100,VALID,0.0509425,VALID,20.2232,VALID,24,VALID,0,
2008-01-13, 02:52:00,VALID,916.695,VALID,0,VALID,100,VALID,0.0339617,VALID,20.2337,VALID,17,VALID,0.617369,
2008-01-13, 02:53:00,VALID,916.681,VALID,0,VALID,100,VALID,0,VALID,20.2432,VALID,28,VALID,1.10857,
2008-01-13, 02:54:00,VALID,916.671,VALID,0,VALID,100,VALID,0,VALID,20.2464,VALID,22,VALID,1.16193,
2008-01-13, 02:55:00,VALID,916.655,VALID,0,VALID,100,VALID,0,VALID,20.2432,VALID,31,VALID,1.0958,
2008-01-13, 02:56:00,VALID,916.651,VALID,0,VALID,100,VALID,0.0169808,VALID,20.2394,VALID,17,VALID,1.12429,
2008-01-13, 02:57:00,VALID,916.629,VALID,0,VALID,100,VALID,0.0169808,VALID,20.2432,VALID,22,VALID,1.05972,
2008-01-13, 02:58:00,VALID,916.608,VALID,0,VALID,100,VALID,0.0169808,VALID,20.2407,VALID,20,VALID,1.21413,
2008-01-13, 02:59:00,VALID,916.599,VALID,0,VALID,100,VALID,-0.0339617,VALID,20.2172,VALID,12,VALID,1.0103,
2008-01-13, 03:00:00,VALID,916.591,VALID,0,VALID,100,VALID,0,VALID,20.204,VALID,16,VALID,0.886039,
2008-01-13, 03:01:00,VALID,916.596,VALID,0,VALID,100,VALID,0.0169808,VALID,20.2112,VALID,17,VALID,0.643102,
2008-01-13, 03:02:00,VALID,916.591,VALID,0,VALID,100,VALID,-0.0169808,VALID,20.2169,VALID,23,VALID,0.234003,
2008-01-13, 03:03:00,VALID,916.58,VALID,0,VALID,100,VALID,0,VALID,20.2364,VALID,28,VALID,0,
2008-01-13, 03:04:00,VALID,916.591,VALID,0,VALID,100,VALID,0,VALID,20.2499,VALID,35,VALID,0,
2008-01-13, 03:05:00,VALID,916.577,VALID,0,VALID,100,VALID,-0.0339617,VALID,20.2626,VALID,35,VALID,0,
2008-01-13, 03:06:00,VALID,916.57,VALID,0,VALID,100,VALID,0.0509425,VALID,20.2461,VALID,32,VALID,0,
2008-01-13, 03:07:00,VALID,916.57,VALID,0,VALID,100,VALID,0,VALID,20.2464,VALID,31,VALID,0,
2008-01-13, 03:08:00,VALID,916.559,VALID,0,VALID,100,VALID,0.0169808,VALID,20.2429,VALID,27,VALID,0,
2008-01-13, 03:09:00,VALID,916.559,VALID,0,VALID,100,VALID,0.0339617,VALID,20.2429,VALID,27,VALID,0,
2008-01-13, 03:10:00,VALID,916.544,VALID,0,VALID,100,VALID,0.0339617,VALID,20.2467,VALID,21,VALID,0,
2008-01-13, 03:11:00,VALID,916.515,VALID,0,VALID,100,VALID,0.0169808,VALID,20.2561,VALID,19,VALID,0,
2008-01-13, 03:12:00,VALID,916.511,VALID,0,VALID,100,VALID,0,VALID,20.2242,VALID,21,VALID,0.880504,
2008-01-13, 03:13:00,VALID,916.524,VALID,0,VALID,100,VALID,0,VALID,20.2075,VALID,20,VALID,0.459449,
2008-01-13, 03:14:00,VALID,916.534,VALID,0,VALID,100,VALID,0.0169808,VALID,20.2072,VALID,14,VALID,1.2827,
2008-01-13, 03:15:00,VALID,916.558,VALID,0,VALID,100,VALID,0,VALID,20.1942,VALID,8,VALID,0.74628,
2008-01-13, 03:16:00,VALID,916.59,VALID,0,VALID,100,VALID,0.0169808,VALID,20.2007,VALID,22,VALID,0.912791,
2008-01-13, 03:17:00,VALID,916.609,VALID,0,VALID,100,VALID,0.0169808,VALID,20.1975,VALID,9,VALID,0.844618,
2008-01-13, 03:18:00,VALID,916.617,VALID,0,VALID,100,VALID,0.0339617,VALID,20.1912,VALID,355,VALID,0.830171,
2008-01-13, 03:19:00,VALID,916.618,VALID,0,VALID,100,VALID,-0.0169808,VALID,20.1658,VALID,14,VALID,0.927973,
2008-01-13, 03:20:00,VALID,916.591,VALID,0,VALID,100,VALID,0,VALID,20.1431,VALID,27,VALID,0.71733,
2008-01-13, 03:21:00,VALID,916.576,VALID,0,VALID,100,VALID,0,VALID,20.1269,VALID,28,VALID,0.673735,
2008-01-13, 03:22:00,VALID,916.561,VALID,0,VALID,100,VALID,0.0339617,VALID,20.1266,VALID,43,VALID,0.842988,
2008-01-13, 03:23:00,VALID,916.549,VALID,0,VALID,100,VALID,0,VALID,20.1496,VALID,18,VALID,0.43192,
2008-01-13, 03:24:00,VALID,916.542,VALID,0,VALID,100,VALID,0.0169808,VALID,20.1361,VALID,7,VALID,0,
2008-01-13, 03:25:00,VALID,916.533,VALID,0,VALID,100,VALID,0,VALID,20.1366,VALID,15,VALID,0.000186012,
2008-01-13, 03:26:00,VALID,916.529,VALID,0,VALID,100,VALID,0,VALID,20.1328,VALID,23,VALID,0.756098,
2008-01-13, 03:27:00,VALID,916.517,VALID,0,VALID,100,VALID,-0.0169808,VALID,20.1366,VALID,13,VALID,0.928043,
2008-01-13, 03:28:00,VALID,916.523,VALID,0,VALID,100,VALID,-0.0169808,VALID,20.1396,VALID,18,VALID,0.833891,
2008-01-13, 03:29:00,VALID,916.506,VALID,0,VALID,100,VALID,0.0169808,VALID,20.1263,VALID,16,VALID,1.1503,
2008-01-13, 03:30:00,VALID,916.515,VALID,0,VALID,100,VALID,0,VALID,20.1071,VALID,360,VALID,0.981571,
2008-01-13, 03:31:00,VALID,916.507,VALID,0,VALID,100,VALID,-0.0169808,VALID,20.1101,VALID,8,VALID,0.640988,
2008-01-13, 03:32:00,VALID,916.518,VALID,0,VALID,100,VALID,-0.0169808,VALID,20.1101,VALID,20,VALID,0.844271,
2008-01-13, 03:33:00,VALID,916.506,VALID,0,VALID,100,VALID,-0.0169808,VALID,20.1036,VALID,19,VALID,0.337695,
2008-01-13, 03:34:00,VALID,916.483,VALID,0,VALID,100,VALID,-0.0169808,VALID,20.1196,VALID,19,VALID,0,
2008-01-13, 03:35:00,VALID,916.482,VALID,0,VALID,100,VALID,0,VALID,20.1201,VALID,18,VALID,0.843572,
2008-01-13, 03:36:00,VALID,916.472,VALID,0,VALID,100,VALID,0,VALID,20.0944,VALID,20,VALID,0.134266,
2008-01-13, 03:37:00,VALID,916.473,VALID,0,VALID,100,VALID,0.0169808,VALID,20.0909,VALID,20,VALID,0,
2008-01-13, 03:38:00,VALID,916.474,VALID,0,VALID,100,VALID,0,VALID,20.1039,VALID,20,VALID,0,
2008-01-13, 03:39:00,VALID,916.479,VALID,0,VALID,100,VALID,-0.0169808,VALID,20.1234,VALID,20,VALID,0,
2008-01-13, 03:40:00,VALID,916.464,VALID,0,VALID,100,VALID,-0.0169808,VALID,20.1261,VALID,20,VALID,0,
2008-01-13, 03:41:00,VALID,916.452,VALID,0,VALID,100,VALID,-0.0339617,VALID,20.1461,VALID,20,VALID,0,
2008-01-13, 03:42:00,VALID,916.457,VALID,0,VALID,100,VALID,0.0169808,VALID,20.1596,VALID,19,VALID,0,
2008-01-13, 03:43:00,VALID,916.449,VALID,0,VALID,100,VALID,0,VALID,20.1458,VALID,350,VALID,0,
2008-01-13, 03:44:00,VALID,916.435,VALID,0,VALID,100,VALID,0.0509425,VALID,20.1488,VALID,350,VALID,0,
2008-01-13, 03:45:00,VALID,916.43,VALID,0,VALID,100,VALID,0.0169808,VALID,20.1491,VALID,350,VALID,0,
2008-01-13, 03:46:00,VALID,916.426,VALID,0,VALID,100,VALID,0,VALID,20.1585,VALID,350,VALID,0,
2008-01-13, 03:47:00,VALID,916.432,VALID,0,VALID,100,VALID,-0.0509425,VALID,20.172,VALID,350,VALID,0,
2008-01-13, 03:48:00,VALID,916.435,VALID,0,VALID,100,VALID,0,VALID,20.1942,VALID,350,VALID,0,
2008-01-13, 03:49:00,VALID,916.429,VALID,0,VALID,100,VALID,0.0169808,VALID,20.204,VALID,350,VALID,0,